Regional Weather Roundup
Issued by NWS

Home | Current Version | Previous Version | Graphics & Text | Print | Product List | Glossary On
Versions: 1 2 3 4 5 6 7 8 9 10 11 12 13 14 15 16 17 18 19 20 21 22 23 24 25 26 27 28 29 30 31 32 33 34 35 36 37 38 39 40 41 42 43 44 45 46 47 48 49 50
000
ASUS43 KIND 251109
RWRIN

WEATHER ROUNDUP FOR INDIANA
NATIONAL WEATHER SERVICE INDIANAPOLIS IN
700 AM EDT SAT MAR 25 2017

NOTE: "FAIR" INDICATES FEW OR NO CLOUDS BELOW 12,000 FEET WITH NO
SIGNIFICANT WEATHER AND/OR OBSTRUCTIONS TO VISIBILITY.

* - STATION DOES NOT REPORT WEATHER SUCH AS PRECIPITATION OR FOG.

+ - STATION NOT QUALITY CONTROLLED BY THE NATIONAL WEATHER SERVICE.
    USE DATA WITH CAUTION...ESPECIALLY DEWPOINT AND RELATIVE
    HUMIDITY OBSERVATIONS.

INZ001>003-010>013-019-020-251200-
NORTHWEST INDIANA

CITY           SKY/WX    TMP DP  RH WIND       PRES   REMARKS
GARY /AIRPORT/ CLOUDY    41  41 100 N6        30.04R FOG
KNOX *+        CLOUDY    43  32  65 N6        30.03R
LA PORTE +     CLOUDY    42  41  97 CALM      30.04R FOG
MICHIGAN CITY+ CLOUDY    41  41 100 CALM      30.05R
MONTICELLO +   CLOUDY    50  46  84 NE5       30.00R
RENSSELAER +   DRIZZLE   43  43 100 NE8       30.01S
VALPARAISO     CLOUDY    42  40  92 NE3       30.04R

$$

LMZ046-743>745-251200-
SOUTHERN LAKE MICHIGAN

STATION/POSITION TIME  TEMP    WIND        PRES    WAVE
                       AIR SEA DIR/SP/G            HT
                 (UTC) (F)     (DEG/KT/KT) (MB)    (FT)
BURNS HARBOR     1040   40     260/  2/  3 1017.6S
MICHIGAN CITY    1040   40     170/  2/  3   N/A

$$

INZ004-005-014>016-021>024-251200-
NORTH CENTRAL INDIANA

CITY           SKY/WX    TMP DP  RH WIND       PRES   REMARKS
GOSHEN         LGT RAIN  54  50  86 E6        30.04R
LOGANSPORT +   CLOUDY    54  50  87 CALM      30.02R
PERU/GRISSOM   CLOUDY    57  55  94 SE9       30.00S
ROCHESTER +    PTCLDY    55  52  88 NE3       30.03S
SOUTH BEND     LGT RAIN  46  46 100 S6        30.06R FOG
WARSAW +       LGT RAIN  52  50  93 E5        30.04R

$$

INZ006>009-017-018-025>027-251200-
NORTHEAST INDIANA

CITY           SKY/WX    TMP DP  RH WIND       PRES   REMARKS
ANGOLA *+      MOCLDY    55  54  94 CALM      30.05R
AUBURN +       CLOUDY    52  48  87 CALM      30.06R
FORT WAYNE     CLOUDY    57  51  80 S6        30.05R
HUNTINGTON +   MOCLDY    59  53  78 S5        30.04R
KENDALLVILLE + CLOUDY    55  52  88 CALM      30.06R

$$

INZ028-029-035-036-043>045-051>053-251200-
WEST CENTRAL INDIANA

CITY           SKY/WX    TMP DP  RH WIND       PRES   REMARKS
CRAWFORDSVL +  CLOUDY    57  53  85 SE8       29.99S
GREENCASTLE +  PTCLDY    59  52  77 SE8       30.01S
LAFAYETTE      MOCLDY    60  53  77 S6        29.98R
TERRE HAUTE    MOCLDY    63  52  67 SE13G22   29.97S

$$

INZ030>032-037>040-046>048-054>057-064-065-251200-
CENTRAL INDIANA

CITY           SKY/WX    TMP DP  RH WIND       PRES   REMARKS
CP ATTERBURY + CLOUDY    61  50  67 S7        30.06R
COLUMBUS       PTCLDY    59  52  77 S12       30.06
FISHERS *+     CLOUDY    59  54  82 S9        30.04R
FRANKFORT +    CLOUDY    61  54  78 S7        30.02S
GREENWOOD *+   CLOUDY    61  53  74 S8        30.05R
INDIANAPOLIS   CLOUDY    60  52  74 SE9       30.03R
-EAGLE CREEK   CLOUDY    61  52  72 SE6       30.03R
KOKOMO +       LGT RAIN  57  52  83 SE10      30.03S
MARION +       CLOUDY    57  51  80 S8        30.04S HAZE
MT COMFORT *+  CLOUDY    59  52  77 S10       30.05R
SHELBYVILLE    CLOUDY    63  50  62 S16       30.05R
ZIONSVILLE +   CLOUDY    60  52  75 S9        30.04R

$$

INZ033-034-041-042-049-050-058-059-251200-
EAST CENTRAL INDIANA

CITY           SKY/WX    TMP DP  RH WIND       PRES   REMARKS
MUNCIE         CLOUDY    63  51  65 S9        30.05R
RICHMOND +     CLOUDY    54  50  87 S10       30.10S

$$

INZ060-061-067>069-081>083-085>088-251200-
SOUTHWEST INDIANA

CITY           SKY/WX    TMP DP  RH WIND       PRES   REMARKS
EVANSVILLE     CLOUDY    65  52  62 S12G17    30.00R
HUNTINGBURG *+ CLOUDY    63  52  67 SE14G20   30.01S
WASHINGTON +   PTCLDY    62  49  63 CALM      29.98S

$$

INZ062-063-066-070>080-084-089>092-251200-
SOUTH CENTRAL AND SOUTHEAST INDIANA

CITY           SKY/WX    TMP DP  RH WIND       PRES   REMARKS
BEDFORD +      PTCLDY   N/A N/A N/A SE8       30.03R
BLOOMINGTON    CLOUDY    60  50  69 SE9       30.02S
MADISON *+     MOCLDY    61  46  59 SE7       30.11R
NORTH VERNON + CLOUDY    63  48  59 S8        30.08
SEYMOUR +      CLOUDY    61  50  67 SE9       30.06R

$$





USA.gov is the U.S. government's official web portal to all federal, state and local government web resources and services.